Regional Weather Roundup
Issued by NWS

Home | Current Version | Previous Version | Text Only | Print | Product List | Glossary On
Versions: 1 2 3 4 5 6 7 8 9 10 11 12 13 14 15 16 17 18 19 20 21 22 23 24 25 26 27 28 29 30 31 32 33 34 35 36 37 38 39 40 41 42 43 44 45 46 47 48 49 50
000
ASPQ40 PGUM 250512
RWRPQ
WEATHER ROUNDUP FOR THE MARIANAS AND MICRONESIA
NATIONAL WEATHER SERVICE TIYAN GU
300 PM CHST THU DEC 25 2014

GUZ001>004-250600-
MARIANA ISLANDS-

CITY           SKY/WX    TMP DP  RH WIND       PRES   REMARKS
GUAM AIRPORT   PTSUNNY   84  79  84 E17       29.80F HX  96
ANDERSEN AFB   PTSUNNY   81  77  89 NE14      29.81S
ROTA AIRPORT   PTSUNNY   81  77  89 E17G23    29.82F
TINIAN AP      PTSUNNY   84  77  79 E23G29    29.81S HX  94
SAIPAN AP      PTSUNNY   84  75  74 E22G29    29.81F HX  92

$$

PMZ161-250600-
REPUBLIC OF PALAU-

CITY           SKY/WX    TMP DP  RH WIND       PRES   REMARKS
KOROR AP       LGT RAIN  77  75  94 E3        29.75F
KOROR WSO      LGT RAIN  77  75  94 E5        29.72F

$$

PMZ171>174-250600-
FEDERATED STATES OF MICRONESIA-

CITY           SKY/WX    TMP DP  RH WIND       PRES   REMARKS
YAP AIRPORT    CLOUDY    84  77  79 E15       29.68F HX  94
CHUUK AP       CLOUDY    84  77  79 N8        29.66F HX  94
POHNPEI AP     CLOUDY    84  77  79 E8        29.69F HX  94
POHNPEI WSO    CLOUDY    84  77  79 NE15      29.74R HX  94
KOSRAE AP      NOT AVBL

$$

PMZ181-250600-
REPUBLIC OF THE MARSHALL ISLANDS-

CITY           SKY/WX    TMP DP  RH WIND       PRES   REMARKS
KWAJALEIN AP   PTSUNNY   84  73  70 NE24      29.73R HX  91
MAJURO AP      NOT AVBL
MAJURO WSO     CLOUDY    84  77  79 NE15      29.69  HX  94

$$



USA.gov is the U.S. government's official web portal to all federal, state and local government web resources and services.